Regional Weather Roundup
Issued by NWS

Home | Current Version | Previous Version | Text Only | Print | Product List | Glossary Off
Versions: 1 2 3 4 5 6 7 8 9 10 11 12 13 14 15 16 17 18 19 20 21 22 23 24 25 26 27 28 29 30 31 32 33 34 35 36 37 38 39 40 41 42 43 44 45 46 47 48 49 50

000
ASUS43 KBIS 261831
RWRND
NORTH DAKOTA REGIONAL WEATHER ROUNDUP
NATIONAL WEATHER SERVICE EASTERN NORTH DAKOTA/GRAND FORKS ND
100 PM CDT MON JUN 26 2017

  NOTE: "FAIR" INDICATES FEW OR NO CLOUDS BELOW 12,000 FEET WITH NO
  SIGNIFICANT WEATHER AND/OR OBSTRUCTIONS TO VISIBILITY.

NDZ001>003-009>011-017-261900-
...NORTHWEST NORTH DAKOTA...

CITY           SKY/WX    TMP DP  RH WIND       PRES   REMARKS
WILLISTON      FAIR      77  43  29 SE13      30.13F
6HR MIN TEMP:  49; 6HR MAX TEMP:  77;

MINOT          FAIR      70  38  31 S12       30.18F
MINOT AFB      FAIR      70  39  33 S6        30.17F
$$

NDZ018>021-031>035-040>046-261900-
...SOUTHWEST NORTH DAKOTA...

CITY           SKY/WX    TMP DP  RH WIND       PRES   REMARKS
BISMARCK       FAIR      70  43  37 VRB3      30.21F
DICKINSON      FAIR      71  39  31 SE16      30.16F
GARRISON         N/A     69  42  37 SE7       30.19F
HETTINGER      FAIR      75  41  29 SE9       30.20F
$$

NDZ004>008-012>016-024-026-027-054-261900-
...NORTHEAST NORTH DAKOTA...

CITY           SKY/WX    TMP DP  RH WIND       PRES   REMARKS
GRAND FORKS    FAIR      71  43  36 W9        30.18F
GRAND FORKS AF FAIR      71  40  32 W13       30.18F
DEVILS LAKE    FAIR      66  40  38 W8        30.22F
$$

NDZ022-023-025-028>030-036>039-047>053-261900-
...SOUTHEAST NORTH DAKOTA...

CITY           SKY/WX    TMP DP  RH WIND       PRES   REMARKS
JAMESTOWN      FAIR      67  41  38 SW8       30.22F
FARGO          FAIR      72  38  29 NW9       30.19F
WAHPETON       FAIR      68  37  32 W7        30.21F
$$




USA.gov is the U.S. government's official web portal to all federal, state and local government web resources and services.